Location: Red Rock Farm
(35.2100°N, 97.2200°W)
Time: 08:31:44
(UTC-06:00)

ISS - All Passes

Search period start: 28 November 2014 00:00
Search period end: 08 December 2014 00:00
Orbit: 407 x 417 km, 51.6° (Epoch: 28 November)

Date Brightness Start Highest point End Pass type
(mag) Time Alt. Az. Time Alt. Az. Time Alt. Az.
28 Nov - 00:03:10 10° WNW 00:05:12 15° NNW 00:07:14 10° N night (unlit)
28 Nov - 04:56:30 10° NNW 04:59:03 20° NNE 05:01:36 10° E visible
28 Nov - 06:32:43 10° WNW 06:35:47 37° SW 06:38:50 10° SSE visible
28 Nov - 21:35:38 10° SSW 21:38:32 29° SE 21:41:27 10° ENE night (unlit)
28 Nov - 23:12:27 10° W 23:15:10 23° NNW 23:17:53 10° NNE night (unlit)
29 Nov - 04:07:15 10° N 04:09:00 14° NNE 04:10:44 10° ENE visible
29 Nov - 05:42:42 10° NW 05:46:00 79° SW 05:49:16 10° SE visible
29 Nov - 20:46:49 10° SSE 20:48:49 15° SE 20:50:49 10° E night (unlit)
29 Nov - 22:22:04 10° WSW 22:25:11 40° NW 22:28:19 10° NE night (unlit)
30 Nov - 04:52:53 10° NW 04:56:06 50° NE 04:59:18 10° ESE visible
30 Nov - 06:31:01 10° WSW 06:32:23 12° SW 06:33:44 10° SSW visible
30 Nov - 21:31:57 10° SW 21:35:14 81° NW 21:38:32 10° NE night (unlit)
30 Nov - 23:11:00 10° NW 23:12:19 12° NNW 23:13:38 10° N night (unlit)
01 Dec - 04:03:12 10° NNW 04:06:05 28° NE 04:08:59 10° E visible
01 Dec - 05:39:56 10° WNW 05:42:38 23° SW 05:45:19 10° S visible
01 Dec - 20:42:10 10° SSW 20:45:20 47° SE 20:48:31 10° ENE night (unlit)
01 Dec - 22:19:49 10° WNW 22:22:08 18° NNW 22:24:27 10° NNE night (unlit)
02 Dec - 03:13:40 10° NNW 03:15:59 18° NNE 03:18:17 10° ENE night (unlit)
02 Dec - 04:49:36 10° WNW 04:52:47 48° SW 04:55:57 10° SSE visible
02 Dec - 19:52:47 10° S 19:55:28 23° SE 19:58:09 10° ENE visible
02 Dec - 21:29:06 10° W 21:32:00 28° NW 21:34:54 10° NNE night (unlit)
03 Dec - 02:24:27 10° N 02:25:45 12° NNE 02:27:03 10° NE night (unlit)
03 Dec - 03:59:33 10° NW 04:02:50 80° NE 04:06:07 10° SE night (unlit)
03 Dec - 19:04:19 10° SSE 19:05:38 12° SE 19:06:57 10° ESE visible
03 Dec - 20:38:41 10° WSW 20:41:54 51° NW 20:45:07 10° NE night (unlit)
04 Dec - 03:09:39 10° NW 03:12:47 40° NE 03:15:54 10° ESE night (unlit)
04 Dec - 04:47:07 10° W 04:49:09 15° SW 04:51:10 10° SSW night (unlit)
04 Dec - 19:48:34 10° SW 19:51:51 77° SE 19:55:08 10° NE visible
04 Dec - 21:27:04 10° WNW 21:28:49 14° NNW 21:30:35 10° N night (unlit)
05 Dec - 02:19:54 10° NNW 02:22:37 23° NNE 02:25:19 10° E night (unlit)
05 Dec - 03:56:19 10° WNW 03:59:14 30° SW 04:02:09 10° SSE night (unlit)
05 Dec - 18:58:47 10° SSW 19:01:50 36° SE 19:04:53 10° ENE visible
05 Dec - 20:35:58 10° W 20:38:32 21° NNW 20:41:06 10° NNE visible
06 Dec - 01:30:20 10° N 01:32:20 15° NNE 01:34:20 10° ENE night (unlit)
06 Dec - 03:05:59 10° NW 03:09:14 64° SW 03:12:29 10° SE night (unlit)
06 Dec - 18:09:31 10° S 18:11:52 18° SE 18:14:12 10° E visible
06 Dec - 19:45:14 10° WSW 19:48:17 34° NW 19:51:20 10° NNE visible
07 Dec - 00:41:27 10° NNE 00:41:56 10° NNE 00:42:26 10° NNE night (unlit)
07 Dec - 02:15:52 10° NW 02:19:07 61° NE 02:22:22 10° ESE night (unlit)
07 Dec - 18:54:48 10° SW 18:58:05 67° NW 19:01:22 10° NE visible
07 Dec - 20:34:20 10° NW 20:35:13 11° NNW 20:36:07 10° N visible
